Regional Weather Roundup
Issued by NWS

Home | Current Version | Previous Version | Graphics & Text | Print | Product List | Glossary Off
Versions: 1 2 3 4 5 6 7 8 9 10 11 12 13 14 15 16 17 18 19 20 21 22 23 24 25 26 27 28 29 30 31 32 33 34 35 36 37 38 39 40 41 42 43 44 45 46 47 48 49 50

000
ASUS44 KMEG 030700
RWRTN
TENNESSEE HOURLY STATE WEATHER ROUNDUP
NATIONAL WEATHER SERVICE MEMPHIS TN
200 AM CDT WED SEP 03 2014

TNZ002-004-019-021-049-052-054-088>092-030800-
WEST TENNESSEE

CITY           SKY/WX    TMP DP  RH WIND       PRES   REMARKS
MEMPHIS INTL   CLEAR     74  70  87 CALM      29.99F
NWS MEMPHIS      N/A     72 N/A N/A MISG        N/A
JACKSON        FOG       72  71  97 NW3         N/A  VSB 3/4
DYERSBURG      CLEAR     70  61  73 CALM      30.02R
UNION CITY     MOCLDY    68  68 100 CALM      30.00S VSB 1/4
PARIS          MOCLDY    66  66 100 CALM      30.02R VSB 1/4
LEXINGTON      CLEAR     70  68  94 CALM      30.00S
SAVANNAH       CLOUDY    72  72 100 CALM      30.01S
$$

TNZ008-025-027-028-033-062-065-066-030800-
NORTH MIDDLE TENNESSEE

CITY           SKY/WX    TMP DP  RH WIND       PRES   REMARKS
NASHVILLE      CLOUDY    73  71  93 S3        30.00F
CLARKSVILLE    CLOUDY    71  70  96 CALM      30.00F FOG
COOKEVILLE     MOCLDY    70  70 100 S3        30.04R
CROSSVILLE     MOCLDY    70  66  87 S5        30.09F
$$

TNZ061-075-076-078-094-096-097-030800-
SOUTH MIDDLE TENNESSEE

CITY           SKY/WX    TMP DP  RH WIND       PRES   REMARKS
FAYETTEVILLE   CLEAR     72  72 100 CALM      30.02F
TULLAHOMA      CLEAR     72  70  94 CALM      30.03F
WINCHESTER     CLEAR     72  72 100 CALM      30.03F
SHELBYVILLE    MOCLDY    73  73 100 NE3       30.02F
$$

TNZ017-018-042-046-047-030800-
NORTHEAST TENNESSEE

CITY           SKY/WX    TMP DP  RH WIND       PRES   REMARKS
TRI CITIES     LGT RAIN  68  65  90 CALM      30.08F
ELIZABETHTON   SUNNY     64  64 100 CALM      30.09F
$$

TNZ012-013-036-069-073-074-030800-
CENTRAL EAST TENNESSEE

CITY           SKY/WX    TMP DP  RH WIND       PRES   REMARKS
KNOXVILLE      CLOUDY    70  69  97 CALM      30.04F
OAK RIDGE      CLOUDY    72  70  93 CALM      30.06F
GATLINBURG     SUNNY     68  66  94 CALM      30.05F
$$

TNZ083-085-099-030800-
SOUTHEAST TENNESSEE

CITY           SKY/WX    TMP DP  RH WIND       PRES   REMARKS
CHATTANOOGA    TSTM      71  69  93 NE6       30.06R FOG
$$

SKY/WX REPORTED AS FAIR MEANS FEW OR NO CLOUDS BELOW
12 THOUSAND FEET.



USA.gov is the U.S. government's official web portal to all federal, state and local government web resources and services.